Tracking 31027 objects as of 19-Jul-2025
HD Live streaming from Space Station
objects crossing your sky now

W-CUBE

Track W-CUBE now!
10-day predictions


NORAD ID: 48965
Int'l Code: 2021-059CQ
Perigee: 344.2 km
Apogee: 347.4 km
Inclination: 97.7 °
Period: 91.3 minutes
Semi major axis: 6716 km
RCS: Unknown
Launch date: June 30, 2021
Source: (FIN)
Launch site: AIR FORCE EASTERN TEST RANGE (AFETR)
Your satellite tracking list
IRIDIUM 134
Track 1 satellite(s)




NASA's NSSDC Master Catalog

Two Line Element Set (TLE):
1 48965U 21059CQ  25199.44904822  .00093004  00000-0  56788-3 0  9991
2 48965  97.6675  14.7183 0002393  87.1379 273.0160 15.77112680226287
Source of the keplerian elements: AFSPC